カタログに戻る

SL-14 R/B

運用中PO
NORAD 13272·ROCKET BODY·🇷🇺 Russia

打ち上げ Jun 10, 1982 から Plesetsk Cosmodrome

Loading…

次のパス (今後24時間)

TLE

最新Source: Space-Track

元期: Sep 14, 2026, 13:30 UTC

1 13272U 82059B   26257.56284800  .00000343  00000-0  35097-4 0  9992
2 13272  82.5110 202.8280 0019152 113.0439 247.2800 14.87308044372010

AllMySatでSL-14 R/Bをリアルタイム追跡

Download on the App Store